| time (UTC) | temp F | wind direction | speed MPH | gust MPH | rain 1hr in | rain 24hr in | rain mn in | humidity % | barometer mb |
| 20260506134919 | 68 | 215 | 4.0 | 7.0 | 0.00 | 0.00 | 0.00 | 72 | 1008.1 |
| 20260506134402 | 67 | 224 | 2.0 | 13.0 | 0.00 | 0.00 | 0.00 | 72 | 1008.0 |
| 20260506133847 | 67 | 246 | 3.0 | 13.0 | 0.00 | 0.00 | 0.00 | 73 | 1008.3 |
| 20260506133351 | 67 | 240 | 3.0 | 11.0 | 0.00 | 0.00 | 0.00 | 73 | 1008.4 |
| 20260506132900 | 67 | 242 | 6.0 | 11.0 | 0.00 | 0.00 | 0.00 | 73 | 1008.6 |
| 20260506132405 | 66 | 238 | 1.0 | 5.0 | 0.00 | 0.00 | 0.00 | 74 | 1008.6 |
| 20260506131849 | 66 | 286 | 3.0 | 8.0 | 0.00 | 0.00 | 0.00 | 75 | 1008.7 |
| 20260506131356 | 66 | 231 | 3.0 | 9.0 | 0.00 | 0.00 | 0.00 | 75 | 1008.6 |
| 20260506130901 | 66 | 234 | 5.0 | 9.0 | 0.00 | 0.00 | 0.00 | 75 | 1008.6 |
| 20260506130401 | 65 | 232 | 4.0 | 7.0 | 0.00 | 0.00 | 0.00 | 76 | 1008.5 |
| 20260506125852 | 65 | 211 | 3.0 | 9.0 | 0.00 | 0.00 | 0.00 | 76 | 1008.5 |
| 20260506125400 | 65 | 229 | 4.0 | 11.0 | 0.00 | 0.00 | 0.00 | 77 | 1008.6 |
| 20260506124844 | 65 | 226 | 3.0 | 11.0 | 0.00 | 0.00 | 0.00 | 77 | 1008.7 |
| 20260506124352 | 65 | 227 | 4.0 | 10.0 | 0.00 | 0.00 | 0.00 | 77 | 1008.7 |
| 20260506123858 | 64 | 234 | 6.0 | 10.0 | 0.00 | 0.00 | 0.00 | 78 | 1008.7 |
| 20260506123346 | 64 | 256 | 4.0 | 10.0 | 0.00 | 0.00 | 0.00 | 78 | 1008.9 |
| 20260506122853 | 64 | 242 | 4.0 | 7.0 | 0.00 | 0.00 | 0.00 | 80 | 1008.8 |
| 20260506122358 | 63 | 234 | 3.0 | 10.0 | 0.00 | 0.00 | 0.00 | 79 | 1008.8 |
| 20260506121902 | 63 | 250 | 3.0 | 10.0 | 0.00 | 0.00 | 0.00 | 80 | 1008.7 |
| 20260506121344 | 63 | 257 | 4.0 | 7.0 | 0.00 | 0.00 | 0.00 | 80 | 1008.6 |
| 20260506120851 | 63 | 229 | 3.0 | 9.0 | 0.00 | 0.00 | 0.00 | 81 | 1008.8 |
| 20260506120351 | 62 | 241 | 5.0 | 12.0 | 0.00 | 0.00 | 0.00 | 81 | 1008.8 |
| 20260506115903 | 62 | 232 | 4.0 | 12.0 | 0.00 | 0.00 | 0.00 | 82 | 1009.0 |
| 20260506115349 | 62 | 244 | 4.0 | 9.0 | 0.00 | 0.00 | 0.00 | 82 | 1009.0 |
| 20260506114912 | 62 | 219 | 3.0 | 10.0 | 0.00 | 0.00 | 0.00 | 82 | 1009.1 |
| 20260506114355 | 62 | 232 | 6.0 | 10.0 | 0.00 | 0.00 | 0.00 | 82 | 1008.8 |
| 20260506113900 | 62 | 236 | 3.0 | 9.0 | 0.00 | 0.00 | 0.00 | 82 | 1009.2 |
| 20260506113403 | 62 | 221 | 5.0 | 9.0 | 0.00 | 0.00 | 0.00 | 82 | 1009.4 |
| 20260506112848 | 62 | 221 | 4.0 | 8.0 | 0.00 | 0.00 | 0.00 | 82 | 1009.3 |
| 20260506112412 | 62 | 264 | 2.0 | 7.0 | 0.00 | 0.00 | 0.00 | 82 | 1009.3 |
| 20260506111851 | 62 | 215 | 5.0 | 8.0 | 0.00 | 0.00 | 0.00 | 82 | 1009.1 |
| 20260506111356 | 62 | 217 | 3.0 | 8.0 | 0.00 | 0.00 | 0.00 | 82 | 1009.1 |
| 20260506110902 | 62 | 229 | 5.0 | 7.0 | 0.00 | 0.00 | 0.00 | 82 | 1009.1 |
| 20260506110356 | 61 | 239 | 5.0 | 7.0 | 0.00 | 0.00 | 0.00 | 82 | 1009.1 |
| 20260506105922 | 61 | 229 | 3.0 | 8.0 | 0.00 | 0.00 | 0.00 | 83 | 1009.0 |
| 20260506105347 | 61 | 235 | 4.0 | 8.0 | 0.00 | 0.00 | 0.00 | 83 | 1009.0 |
| 20260506104851 | 61 | 254 | 3.0 | 9.0 | 0.00 | 0.00 | 0.00 | 82 | 1009.0 |
| 20260506104343 | 61 | 240 | 4.0 | 9.0 | 0.00 | 0.00 | 0.00 | 82 | 1009.0 |
| 20260506103905 | 61 | 230 | 2.0 | 11.0 | 0.00 | 0.00 | 0.00 | 82 | 1009.1 |
| 20260506103348 | 61 | 241 | 3.0 | 11.0 | 0.00 | 0.00 | 0.00 | 82 | 1009.1 |
| 20260506102854 | 61 | 237 | 2.0 | 6.0 | 0.00 | 0.00 | 0.00 | 82 | 1009.2 |
| 20260506102423 | 61 | 229 | 1.0 | 7.0 | 0.00 | 0.00 | 0.00 | 82 | 1009.2 |
| 20260506101847 | 61 | 232 | 1.0 | 7.0 | 0.00 | 0.00 | 0.00 | 82 | 1009.1 |
| 20260506101352 | 61 | 217 | 4.0 | 7.0 | 0.00 | 0.00 | 0.00 | 82 | 1009.0 |
| 20260506100858 | 61 | 234 | 3.0 | 9.0 | 0.00 | 0.00 | 0.00 | 82 | 1008.9 |
| 20260506100356 | 61 | 244 | 4.0 | 9.0 | 0.00 | 0.00 | 0.00 | 82 | 1009.0 |
| 20260506095850 | 61 | 233 | 4.0 | 9.0 | 0.00 | 0.00 | 0.00 | 82 | 1009.0 |
| 20260506095357 | 61 | 232 | 4.0 | 7.0 | 0.00 | 0.00 | 0.00 | 82 | 1008.8 |
| 20260506094845 | 61 | 233 | 2.0 | 8.0 | 0.00 | 0.00 | 0.00 | 82 | 1008.7 |
| 20260506094347 | 61 | 217 | 3.0 | 8.0 | 0.00 | 0.00 | 0.00 | 82 | 1008.7 |
| 20260506093852 | 61 | 236 | 2.0 | 8.0 | 0.00 | 0.00 | 0.00 | 82 | 1008.7 |
| 20260506093356 | 61 | 229 | 2.0 | 8.0 | 0.00 | 0.00 | 0.00 | 82 | 1008.8 |
| 20260506092843 | 61 | 232 | 4.0 | 8.0 | 0.00 | 0.00 | 0.00 | 81 | 1008.9 |
| 20260506092350 | 61 | 221 | 4.0 | 7.0 | 0.00 | 0.00 | 0.00 | 81 | 1008.9 |
| 20260506091854 | 61 | 246 | 2.0 | 5.0 | 0.00 | 0.00 | 0.00 | 81 | 1008.8 |
| 20260506091359 | 61 | 234 | 2.0 | 7.0 | 0.00 | 0.00 | 0.00 | 80 | 1008.8 |
| 20260506090843 | 61 | 223 | 4.0 | 7.0 | 0.00 | 0.00 | 0.00 | 80 | 1008.8 |
| 20260506090345 | 61 | 267 | 2.0 | 8.0 | 0.00 | 0.00 | 0.00 | 80 | 1008.7 |
| 20260506085854 | 62 | 225 | 4.0 | 8.0 | 0.00 | 0.00 | 0.00 | 80 | 1008.8 |
| 20260506085359 | 62 | 231 | 3.0 | 7.0 | 0.00 | 0.00 | 0.00 | 80 | 1008.8 |
| 20260506084902 | 62 | 231 | 4.0 | 7.0 | 0.00 | 0.00 | 0.00 | 79 | 1008.9 |
| 20260506084345 | 62 | 238 | 2.0 | 7.0 | 0.00 | 0.00 | 0.00 | 79 | 1008.8 |
| 20260506083851 | 62 | 223 | 4.0 | 8.0 | 0.00 | 0.00 | 0.00 | 79 | 1008.8 |
| 20260506083355 | 62 | 229 | 3.0 | 8.0 | 0.00 | 0.00 | 0.00 | 79 | 1008.8 |
| 20260506082859 | 62 | 227 | 4.0 | 8.0 | 0.00 | 0.00 | 0.00 | 79 | 1008.9 |
| 20260506082402 | 62 | 238 | 4.0 | 11.0 | 0.00 | 0.00 | 0.00 | 78 | 1008.9 |
| 20260506081845 | 62 | 236 | 3.0 | 11.0 | 0.00 | 0.00 | 0.00 | 78 | 1008.8 |
| 20260506081352 | 62 | 219 | 3.0 | 10.0 | 0.00 | 0.00 | 0.00 | 78 | 1008.8 |
| 20260506080856 | 62 | 228 | 5.0 | 9.0 | 0.00 | 0.00 | 0.00 | 77 | 1008.7 |
| 20260506080354 | 62 | 273 | 4.0 | 8.0 | 0.00 | 0.00 | 0.00 | 77 | 1008.7 |
| 20260506073348 | 63 | 234 | 5.0 | 14.0 | 0.00 | 0.00 | 0.00 | 76 | 1008.6 |
| 20260506072856 | 63 | 267 | 6.0 | 14.0 | 0.00 | 0.00 | 0.00 | 76 | 1008.7 |
| 20260506072402 | 63 | 237 | 5.0 | 12.0 | 0.00 | 0.00 | 0.00 | 76 | 1008.6 |
| 20260506071845 | 63 | 234 | 3.0 | 9.0 | 0.00 | 0.00 | 0.00 | 75 | 1008.5 |
| 20260506071351 | 63 | 233 | 4.0 | 9.0 | 0.00 | 0.00 | 0.00 | 75 | 1008.5 |
| 20260506070857 | 63 | 275 | 4.0 | 11.0 | 0.00 | 0.00 | 0.00 | 74 | 1008.5 |
| 20260506070401 | 63 | 232 | 3.0 | 13.0 | 0.00 | 0.00 | 0.00 | 74 | 1008.5 |
| 20260506062402 | 64 | 271 | 2.0 | 9.0 | 0.00 | 0.00 | 0.00 | 72 | 1008.4 |
| 20260506061906 | 64 | 246 | 2.0 | 11.0 | 0.00 | 0.00 | 0.00 | 71 | 1008.3 |
| 20260506061351 | 64 | 263 | 4.0 | 11.0 | 0.00 | 0.00 | 0.00 | 71 | 1008.3 |
| 20260506060857 | 64 | 241 | 3.0 | 10.0 | 0.00 | 0.00 | 0.00 | 70 | 1008.3 |
| 20260506060400 | 64 | 213 | 4.0 | 12.0 | 0.00 | 0.00 | 0.00 | 70 | 1008.3 |
| 20260506050845 | 65 | 230 | 4.0 | 8.0 | 0.00 | 0.00 | 0.00 | 67 | 1008.8 |
| 20260506050342 | 65 | 225 | 3.0 | 9.0 | 0.00 | 0.00 | 0.00 | 67 | 1008.6 |
| 20260506044846 | 65 | 297 | 5.0 | 11.0 | 0.00 | 0.00 | 0.00 | 66 | 1008.9 |
| 20260506044350 | 65 | 230 | 6.0 | 11.0 | 0.00 | 0.00 | 0.00 | 66 | 1008.8 |
| 20260506043917 | 65 | 219 | 3.0 | 9.0 | 0.00 | 0.00 | 0.00 | 66 | 1008.8 |
| 20260506043421 | 65 | 269 | 3.0 | 9.0 | 0.00 | 0.00 | 0.00 | 66 | 1008.7 |
| 20260506042846 | 65 | 222 | 3.0 | 11.0 | 0.00 | 0.00 | 0.00 | 65 | 1008.8 |
| 20260506042352 | 65 | 225 | 5.0 | 11.0 | 0.00 | 0.00 | 0.00 | 65 | 1008.8 |
| 20260506041857 | 65 | 247 | 5.0 | 11.0 | 0.00 | 0.00 | 0.00 | 65 | 1008.7 |
| 20260506041423 | 65 | 241 | 3.0 | 9.0 | 0.00 | 0.00 | 0.00 | 65 | 1008.8 |
| 20260506040847 | 65 | 219 | 4.0 | 10.0 | 0.00 | 0.00 | 0.00 | 65 | 1008.8 |
| 20260506040406 | 65 | 237 | 6.0 | 15.0 | 0.00 | 0.00 | 0.00 | 65 | 1008.8 |
| 20260506035849 | 65 | 271 | 6.0 | 15.0 | 0.00 | 0.00 | 0.00 | 65 | 1008.8 |
| 20260506035354 | 65 | 212 | 4.0 | 12.0 | 0.00 | 0.00 | 0.00 | 65 | 1008.7 |
| 20260506034856 | 65 | 263 | 5.0 | 17.0 | 0.00 | 0.00 | 0.00 | 65 | 1008.7 |
| 20260506034341 | 65 | 5 | 4.0 | 10.0 | 0.00 | 0.00 | 0.00 | 65 | 1008.6 |
| 20260506033909 | 65 | 216 | 5.0 | 10.0 | 0.00 | 0.00 | 0.00 | 65 | 1008.6 |
| 20260506033352 | 65 | 229 | 5.0 | 10.0 | 0.00 | 0.00 | 0.00 | 65 | 1008.7 |
| 20260506032855 | 65 | 224 | 3.0 | 11.0 | 0.00 | 0.00 | 0.00 | 65 | 1008.7 |
| 20260506032359 | 65 | 223 | 5.0 | 11.0 | 0.00 | 0.00 | 0.00 | 65 | 1008.6 |
| 20260506031843 | 65 | 331 | 3.0 | 11.0 | 0.00 | 0.00 | 0.00 | 65 | 1008.6 |
| 20260506031350 | 65 | 204 | 4.0 | 10.0 | 0.00 | 0.00 | 0.00 | 65 | 1008.7 |
| 20260506030857 | 65 | 242 | 5.0 | 9.0 | 0.00 | 0.00 | 0.00 | 64 | 1008.6 |
| 20260506030400 | 65 | 214 | 5.0 | 11.0 | 0.00 | 0.00 | 0.00 | 64 | 1008.5 |
| 20260506025850 | 65 | 231 | 3.0 | 14.0 | 0.00 | 0.00 | 0.00 | 64 | 1008.6 |
| 20260506025357 | 65 | 224 | 3.0 | 13.0 | 0.00 | 0.00 | 0.00 | 64 | 1008.6 |
| 20260506024843 | 65 | 246 | 3.0 | 10.0 | 0.00 | 0.00 | 0.00 | 64 | 1008.6 |
| 20260506024410 | 65 | 217 | 4.0 | 8.0 | 0.00 | 0.00 | 0.00 | 64 | 1008.6 |
| 20260506023858 | 65 | 233 | 4.0 | 10.0 | 0.00 | 0.00 | 0.00 | 64 | 1008.7 |
| 20260506023346 | 65 | 246 | 4.0 | 10.0 | 0.00 | 0.00 | 0.00 | 63 | 1008.7 |
| 20260506022913 | 65 | 283 | 4.0 | 10.0 | 0.00 | 0.00 | 0.00 | 63 | 1008.7 |
| 20260506022358 | 65 | 273 | 3.0 | 8.0 | 0.00 | 0.00 | 0.00 | 63 | 1008.6 |
| 20260506021842 | 65 | 241 | 5.0 | 14.0 | 0.00 | 0.00 | 0.00 | 63 | 1008.6 |
| 20260506021349 | 65 | 238 | 3.0 | 14.0 | 0.00 | 0.00 | 0.00 | 63 | 1008.5 |
| 20260506020858 | 65 | 271 | 5.0 | 10.0 | 0.00 | 0.00 | 0.00 | 62 | 1008.6 |
| 20260506020420 | 65 | 275 | 2.0 | 9.0 | 0.00 | 0.00 | 0.00 | 62 | 1008.6 |
| 20260506015850 | 66 | 285 | 3.0 | 8.0 | 0.00 | 0.00 | 0.00 | 61 | 1008.6 |
| 20260506015416 | 66 | 228 | 4.0 | 12.0 | 0.00 | 0.00 | 0.00 | 61 | 1008.6 |
| 20260506014857 | 66 | 202 | 4.0 | 9.0 | 0.00 | 0.00 | 0.00 | 61 | 1008.6 |
| 20260506014400 | 66 | 241 | 3.0 | 9.0 | 0.00 | 0.00 | 0.00 | 60 | 1008.5 |
| 20260506013845 | 66 | 307 | 4.0 | 10.0 | 0.00 | 0.00 | 0.00 | 60 | 1008.5 |
| 20260506013350 | 66 | 295 | 5.0 | 11.0 | 0.00 | 0.00 | 0.00 | 60 | 1008.4 |
| 20260506012856 | 67 | 230 | 4.0 | 11.0 | 0.00 | 0.00 | 0.00 | 60 | 1008.3 |
| 20260506012343 | 67 | 235 | 3.0 | 16.0 | 0.00 | 0.00 | 0.00 | 59 | 1008.2 |
| 20260506011847 | 67 | 284 | 4.0 | 16.0 | 0.00 | 0.00 | 0.00 | 59 | 1008.1 |
| 20260506011413 | 67 | 238 | 4.0 | 11.0 | 0.00 | 0.00 | 0.00 | 59 | 1008.1 |
| 20260506010900 | 67 | 246 | 3.0 | 11.0 | 0.00 | 0.00 | 0.00 | 59 | 1008.1 |
| 20260506010341 | 67 | 210 | 3.0 | 7.0 | 0.00 | 0.00 | 0.00 | 60 | 1007.9 |
| 20260506005849 | 67 | 209 | 3.0 | 9.0 | 0.00 | 0.00 | 0.00 | 60 | 1008.0 |
| 20260506005357 | 67 | 240 | 4.0 | 13.0 | 0.00 | 0.00 | 0.00 | 60 | 1008.0 |
| 20260506004900 | 67 | 259 | 4.0 | 10.0 | 0.00 | 0.00 | 0.00 | 60 | 1008.0 |
| 20260506004347 | 67 | 244 | 4.0 | 10.0 | 0.00 | 0.00 | 0.00 | 60 | 1007.9 |
| 20260506003855 | 67 | 262 | 4.0 | 10.0 | 0.00 | 0.00 | 0.00 | 60 | 1007.8 |
| 20260506003357 | 67 | 272 | 4.0 | 10.0 | 0.00 | 0.00 | 0.00 | 60 | 1007.7 |
| 20260506002921 | 67 | 240 | 3.0 | 7.0 | 0.00 | 0.00 | 0.00 | 61 | 1007.6 |
| 20260506002345 | 67 | 263 | 3.0 | 7.0 | 0.00 | 0.00 | 0.00 | 60 | 1007.5 |
| 20260506001849 | 67 | 232 | 3.0 | 9.0 | 0.00 | 0.00 | 0.00 | 60 | 1007.4 |
| 20260506001355 | 67 | 228 | 3.0 | 9.0 | 0.00 | 0.00 | 0.00 | 60 | 1007.3 |
| 20260506000842 | 67 | 271 | 3.0 | 8.0 | 0.00 | 0.00 | 0.00 | 59 | 1007.1 |
| 20260506000343 | 68 | 204 | 2.0 | 9.0 | 0.00 | 0.00 | 0.00 | 59 | 1007.0 |
| 20260505235914 | 68 | 233 | 4.0 | 9.0 | 0.00 | 0.00 | 0.00 | 59 | 1006.9 |
| 20260505235400 | 68 | 243 | 5.0 | 10.0 | 0.00 | 0.00 | 0.00 | 58 | 1006.9 |
| 20260505234846 | 68 | 281 | 4.0 | 10.0 | 0.00 | 0.00 | 0.00 | 58 | 1006.8 |
| 20260505234353 | 69 | 231 | 4.0 | 10.0 | 0.00 | 0.00 | 0.00 | 57 | 1006.7 |
| 20260505233840 | 69 | 236 | 5.0 | 10.0 | 0.00 | 0.00 | 0.00 | 57 | 1006.7 |
| 20260505233406 | 69 | 227 | 6.0 | 10.0 | 0.00 | 0.00 | 0.00 | 56 | 1006.6 |
| 20260505232851 | 70 | 235 | 3.0 | 9.0 | 0.00 | 0.00 | 0.00 | 56 | 1006.6 |
| 20260505232357 | 70 | 235 | 1.0 | 9.0 | 0.00 | 0.00 | 0.00 | 56 | 1006.6 |
| 20260505231844 | 70 | 231 | 4.0 | 10.0 | 0.00 | 0.00 | 0.00 | 55 | 1006.4 |
| 20260505231350 | 71 | 231 | 4.0 | 10.0 | 0.00 | 0.00 | 0.00 | 54 | 1006.3 |
| 20260505230857 | 72 | 224 | 5.0 | 11.0 | 0.00 | 0.00 | 0.00 | 53 | 1006.2 |
| 20260505230419 | 72 | 248 | 3.0 | 12.0 | 0.00 | 0.00 | 0.00 | 53 | 1006.1 |
| 20260505225848 | 72 | 238 | 7.0 | 13.0 | 0.00 | 0.00 | 0.00 | 52 | 1006.0 |
| 20260505225355 | 72 | 205 | 5.0 | 13.0 | 0.00 | 0.00 | 0.00 | 52 | 1005.9 |
| 20260505224842 | 73 | 336 | 5.0 | 11.0 | 0.00 | 0.00 | 0.00 | 52 | 1005.8 |
| 20260505224349 | 73 | 219 | 6.0 | 12.0 | 0.00 | 0.00 | 0.00 | 52 | 1005.7 |
| 20260505223855 | 73 | 240 | 4.0 | 12.0 | 0.00 | 0.00 | 0.00 | 52 | 1005.7 |
| 20260505223340 | 73 | 238 | 2.0 | 12.0 | 0.00 | 0.00 | 0.00 | 52 | 1005.4 |
| 20260505222848 | 74 | 240 | 4.0 | 11.0 | 0.00 | 0.00 | 0.00 | 52 | 1005.3 |
| 20260505222415 | 74 | 138 | 3.0 | 12.0 | 0.00 | 0.00 | 0.00 | 51 | 1005.2 |
| 20260505221859 | 74 | 242 | 6.0 | 12.0 | 0.00 | 0.00 | 0.00 | 51 | 1005.3 |
| 20260505221405 | 74 | 251 | 4.0 | 13.0 | 0.00 | 0.00 | 0.00 | 51 | 1005.5 |
| 20260505220851 | 74 | 218 | 6.0 | 11.0 | 0.00 | 0.00 | 0.00 | 51 | 1005.6 |
| 20260505220354 | 74 | 250 | 5.0 | 17.0 | 0.00 | 0.00 | 0.00 | 51 | 1005.7 |
| 20260505215844 | 74 | 225 | 5.0 | 17.0 | 0.00 | 0.00 | 0.00 | 51 | 1005.7 |
| 20260505215351 | 74 | 225 | 4.0 | 14.0 | 0.00 | 0.00 | 0.00 | 51 | 1005.7 |
| 20260505214915 | 75 | 225 | 7.0 | 13.0 | 0.00 | 0.00 | 0.00 | 50 | 1005.7 |
| 20260505214340 | 75 | 235 | 6.0 | 12.0 | 0.00 | 0.00 | 0.00 | 50 | 1005.5 |
| 20260505213848 | 75 | 244 | 6.0 | 16.0 | 0.00 | 0.00 | 0.00 | 50 | 1005.5 |
| 20260505213352 | 75 | 243 | 6.0 | 18.0 | 0.00 | 0.00 | 0.00 | 50 | 1005.4 |
| 20260505212919 | 75 | 221 | 8.0 | 18.0 | 0.00 | 0.00 | 0.00 | 49 | 1005.4 |
| 20260505212346 | 76 | 275 | 5.0 | 21.0 | 0.00 | 0.00 | 0.00 | 49 | 1005.2 |
| 20260505211850 | 76 | 263 | 10.0 | 21.0 | 0.00 | 0.00 | 0.00 | 48 | 1005.1 |
| 20260505211418 | 76 | 228 | 7.0 | 14.0 | 0.00 | 0.00 | 0.00 | 48 | 1005.1 |
| 20260505210845 | 77 | 234 | 7.0 | 16.0 | 0.00 | 0.00 | 0.00 | 47 | 1005.2 |
| 20260505210344 | 77 | 252 | 8.0 | 18.0 | 0.00 | 0.00 | 0.00 | 47 | 1005.2 |
| 20260505205853 | 77 | 238 | 9.0 | 18.0 | 0.00 | 0.00 | 0.00 | 46 | 1005.1 |
| 20260505205358 | 78 | 253 | 8.0 | 19.0 | 0.00 | 0.00 | 0.00 | 45 | 1005.1 |
| 20260505204844 | 79 | 209 | 9.0 | 19.0 | 0.00 | 0.00 | 0.00 | 45 | 1005.0 |
| 20260505204352 | 79 | 244 | 6.0 | 15.0 | 0.00 | 0.00 | 0.00 | 45 | 1004.8 |
| 20260505203858 | 79 | 242 | 7.0 | 15.0 | 0.00 | 0.00 | 0.00 | 44 | 1004.7 |
| 20260505203344 | 79 | 5 | 4.0 | 16.0 | 0.00 | 0.00 | 0.00 | 45 | 1004.9 |
| 20260505202910 | 80 | 232 | 5.0 | 14.0 | 0.00 | 0.00 | 0.00 | 44 | 1004.9 |
| 20260505202357 | 80 | 219 | 7.0 | 14.0 | 0.00 | 0.00 | 0.00 | 43 | 1004.9 |
| 20260505201842 | 80 | 232 | 7.0 | 14.0 | 0.00 | 0.00 | 0.00 | 43 | 1004.9 |
| 20260505201349 | 80 | 229 | 4.0 | 16.0 | 0.00 | 0.00 | 0.00 | 43 | 1004.8 |
| 20260505200855 | 80 | 237 | 6.0 | 16.0 | 0.00 | 0.00 | 0.00 | 43 | 1004.9 |
| 20260505200356 | 81 | 229 | 7.0 | 16.0 | 0.00 | 0.00 | 0.00 | 42 | 1004.9 |
| 20260505195847 | 81 | 255 | 5.0 | 13.0 | 0.00 | 0.00 | 0.00 | 43 | 1005.0 |
| 20260505195354 | 81 | 248 | 6.0 | 17.0 | 0.00 | 0.00 | 0.00 | 42 | 1005.0 |
| 20260505194900 | 81 | 229 | 8.0 | 15.0 | 0.00 | 0.00 | 0.00 | 42 | 1004.9 |
| 20260505194345 | 81 | 205 | 4.0 | 14.0 | 0.00 | 0.00 | 0.00 | 42 | 1004.9 |
| 20260505193851 | 81 | 223 | 5.0 | 15.0 | 0.00 | 0.00 | 0.00 | 42 | 1005.0 |
| 20260505193415 | 81 | 244 | 7.0 | 15.0 | 0.00 | 0.00 | 0.00 | 42 | 1005.1 |
| 20260505192842 | 81 | 227 | 7.0 | 17.0 | 0.00 | 0.00 | 0.00 | 42 | 1005.3 |
| 20260505192348 | 81 | 238 | 8.0 | 18.0 | 0.00 | 0.00 | 0.00 | 42 | 1005.4 |
| 20260505191852 | 81 | 240 | 7.0 | 16.0 | 0.00 | 0.00 | 0.00 | 41 | 1005.4 |
| 20260505191359 | 81 | 228 | 8.0 | 16.0 | 0.00 | 0.00 | 0.00 | 41 | 1005.5 |
| 20260505190845 | 82 | 239 | 8.0 | 16.0 | 0.00 | 0.00 | 0.00 | 41 | 1005.4 |
| 20260505190406 | 82 | 228 | 4.0 | 16.0 | 0.00 | 0.00 | 0.00 | 41 | 1005.5 |
| 20260505185858 | 82 | 105 | 5.0 | 14.0 | 0.00 | 0.00 | 0.00 | 41 | 1005.4 |
| 20260505185342 | 82 | 284 | 7.0 | 18.0 | 0.00 | 0.00 | 0.00 | 41 | 1005.4 |
| 20260505184846 | 82 | 225 | 8.0 | 18.0 | 0.00 | 0.00 | 0.00 | 41 | 1005.7 |
| 20260505184413 | 81 | 235 | 6.0 | 17.0 | 0.00 | 0.00 | 0.00 | 42 | 1005.7 |
| 20260505183857 | 81 | 282 | 3.0 | 11.0 | 0.00 | 0.00 | 0.00 | 43 | 1005.8 |
| 20260505183402 | 81 | 257 | 5.0 | 18.0 | 0.00 | 0.00 | 0.00 | 43 | 1005.9 |
| 20260505182847 | 81 | 200 | 6.0 | 16.0 | 0.00 | 0.00 | 0.00 | 43 | 1006.2 |
| 20260505182353 | 81 | 213 | 8.0 | 15.0 | 0.00 | 0.00 | 0.00 | 43 | 1006.2 |
| 20260505181858 | 81 | 229 | 7.0 | 13.0 | 0.00 | 0.00 | 0.00 | 43 | 1006.2 |
| 20260505181346 | 81 | 238 | 7.0 | 14.0 | 0.00 | 0.00 | 0.00 | 43 | 1006.3 |
| 20260505180851 | 82 | 229 | 8.0 | 18.0 | 0.00 | 0.00 | 0.00 | 43 | 1006.4 |
| 20260505180350 | 82 | 205 | 9.0 | 18.0 | 0.00 | 0.00 | 0.00 | 42 | 1006.3 |
| 20260505175902 | 82 | 223 | 6.0 | 15.0 | 0.00 | 0.00 | 0.00 | 42 | 1006.3 |
| 20260505175349 | 83 | 236 | 6.0 | 15.0 | 0.00 | 0.00 | 0.00 | 42 | 1006.4 |
| 20260505174853 | 83 | 242 | 5.0 | 11.0 | 0.00 | 0.00 | 0.00 | 42 | 1006.5 |
| 20260505174401 | 82 | 299 | 4.0 | 17.0 | 0.00 | 0.00 | 0.00 | 42 | 1006.6 |
| 20260505173910 | 82 | 238 | 7.0 | 17.0 | 0.00 | 0.00 | 0.00 | 42 | 1006.6 |
| 20260505173413 | 83 | 198 | 5.0 | 14.0 | 0.00 | 0.00 | 0.00 | 41 | 1006.6 |
| 20260505172858 | 83 | 300 | 5.0 | 10.0 | 0.00 | 0.00 | 0.00 | 41 | 1006.6 |
| 20260505172345 | 82 | 248 | 5.0 | 14.0 | 0.00 | 0.00 | 0.00 | 41 | 1006.7 |
| 20260505171850 | 82 | 292 | 6.0 | 14.0 | 0.00 | 0.00 | 0.00 | 41 | 1006.7 |
| 20260505171356 | 82 | 233 | 5.0 | 16.0 | 0.00 | 0.00 | 0.00 | 42 | 1006.7 |
| 20260505170902 | 82 | 240 | 5.0 | 16.0 | 0.00 | 0.00 | 0.00 | 41 | 1006.8 |
| 20260505170401 | 81 | 206 | 4.0 | 9.0 | 0.00 | 0.00 | 0.00 | 41 | 1006.9 |
| 20260505165850 | 81 | 229 | 4.0 | 10.0 | 0.00 | 0.00 | 0.00 | 41 | 1007.0 |
| 20260505165356 | 81 | 248 | 4.0 | 12.0 | 0.00 | 0.00 | 0.00 | 43 | 1007.0 |
| 20260505164902 | 80 | 206 | 4.0 | 9.0 | 0.00 | 0.00 | 0.00 | 43 | 1007.1 |
| 20260505164348 | 80 | 240 | 3.0 | 9.0 | 0.00 | 0.00 | 0.00 | 43 | 1007.3 |
| 20260505163854 | 80 | 225 | 5.0 | 12.0 | 0.00 | 0.00 | 0.00 | 43 | 1007.5 |
| 20260505163359 | 80 | 295 | 4.0 | 12.0 | 0.00 | 0.00 | 0.00 | 44 | 1007.7 |
| 20260505162906 | 80 | 191 | 2.0 | 9.0 | 0.00 | 0.00 | 0.00 | 44 | 1007.7 |
| 20260505162352 | 79 | 306 | 4.0 | 9.0 | 0.00 | 0.00 | 0.00 | 44 | 1007.8 |
| 20260505161859 | 79 | 239 | 2.0 | 11.0 | 0.00 | 0.00 | 0.00 | 46 | 1007.8 |
| 20260505161345 | 79 | 295 | 5.0 | 11.0 | 0.00 | 0.00 | 0.00 | 45 | 1007.9 |
| 20260505160851 | 78 | 226 | 2.0 | 10.0 | 0.00 | 0.00 | 0.00 | 46 | 1008.0 |
| 20260505160425 | 78 | 291 | 4.0 | 10.0 | 0.00 | 0.00 | 0.00 | 45 | 1008.1 |
| 20260505153346 | 77 | 240 | 3.0 | 7.0 | 0.00 | 0.00 | 0.00 | 46 | 1008.2 |
| 20260505152852 | 77 | 242 | 4.0 | 10.0 | 0.00 | 0.00 | 0.00 | 47 | 1008.2 |
| 20260505152416 | 77 | 216 | 3.0 | 10.0 | 0.00 | 0.00 | 0.00 | 47 | 1008.2 |
| 20260505151859 | 77 | 235 | 3.0 | 10.0 | 0.00 | 0.00 | 0.00 | 48 | 1008.1 |
| 20260505151345 | 75 | 254 | 3.0 | 10.0 | 0.00 | 0.00 | 0.00 | 50 | 1008.3 |
| 20260505150852 | 74 | 273 | 2.0 | 6.0 | 0.00 | 0.00 | 0.00 | 53 | 1008.3 |
| 20260505150352 | 74 | 315 | 2.0 | 8.0 | 0.00 | 0.00 | 0.00 | 55 | 1008.4 |
| 20260505140402 | 67 | 281 | 4.0 | 12.0 | 0.00 | 0.00 | 0.00 | 63 | 1008.9 |